1 Minute Report
Date Time Wind Direction Wind Speed Wind Gust Wind Variable Altimeter Temperature Dewpoint Relative Humidity Visibility Ceiling Precip Present Weather Density Alt Wind Chill Heat Index
18/07/18 00:33 360 09 N/A N/A 30.04 74(F), 23(C) 64(F), 18(C) 73% 10 BKN050 N/A N/A 2000 N/A 75 F 4024
18/07/18 00:32 360 07 N/A N/A 30.04 74(F), 23(C) 64(F), 18(C) 73% 10 BKN050 N/A N/A 2000 N/A 75 F 4023
18/07/18 00:31 360 06 N/A N/A 30.04 74(F), 23(C) 64(F), 18(C) 73% 10 SCT050 N/A N/A 2000 N/A 75 F 4022
18/07/18 00:30 360 06 N/A N/A 30.04 74(F), 23(C) 64(F), 18(C) 73% 10 SCT050 N/A N/A 2000 N/A 75 F 4021
18/07/18 00:29 360 06 N/A N/A 30.04 74(F), 23(C) 64(F), 18(C) 73% 10 SCT050 N/A N/A 2000 N/A 75 F 4020
18/07/18 00:28 360 06 N/A N/A 30.04 74(F), 23(C) 64(F), 18(C) 73% 10 SCT050 N/A N/A 2000 N/A 75 F 4019
18/07/18 00:27 360 05 N/A N/A 30.04 74(F), 23(C) 64(F), 18(C) 73% 10 SCT050 N/A N/A 2000 N/A 75 F 4018
18/07/18 00:26 360 06 N/A N/A 30.04 74(F), 23(C) 64(F), 18(C) 73% 10 SCT050 N/A N/A 2000 N/A 75 F 4017
18/07/18 00:25 010 06 N/A N/A 30.04 74(F), 23(C) 64(F), 18(C) 73% 10 SCT050 N/A N/A 2000 N/A 75 F 4016
18/07/18 00:24 360 05 N/A N/A 30.04 74(F), 23(C) 64(F), 18(C) 73% 10 SCT050 N/A N/A 2000 N/A 75 F 4015
18/07/18 00:23 360 05 N/A N/A 30.04 74(F), 23(C) 64(F), 18(C) 73% 10 SCT050 N/A N/A 2000 N/A 75 F 4014
18/07/18 00:22 360 06 N/A N/A 30.04 74(F), 23(C) 64(F), 18(C) 73% 10 SCT050 N/A N/A 2000 N/A 75 F 4013
18/07/18 00:21 010 06 N/A N/A 30.04 74(F), 23(C) 65(F), 18(C) 73% 10 SCT050 SCT065 N/A N/A 2000 N/A 75 F 4012
18/07/18 00:20 010 05 N/A N/A 30.04 74(F), 23(C) 65(F), 18(C) 73% 10 SCT050 SCT065 N/A N/A 2000 N/A 75 F 4011
18/07/18 00:19 010 06 N/A N/A 30.04 74(F), 23(C) 65(F), 18(C) 73% 10 SCT050 SCT065 N/A N/A 2000 N/A 75 F 4010
18/07/18 00:18 360 05 N/A N/A 30.04 75(F), 24(C) 65(F), 18(C) 69% 10 SCT050 SCT065 N/A N/A 2100 N/A 77 F 4009
18/07/18 00:17 360 05 N/A N/A 30.04 75(F), 24(C) 65(F), 18(C) 69% 10 SCT050 SCT065 N/A N/A 2100 N/A 77 F 4008
18/07/18 00:16 360 05 N/A N/A 30.04 75(F), 24(C) 65(F), 18(C) 69% 10 SCT050 SCT065 N/A N/A 2100 N/A 77 F 4007
18/07/18 00:15 360 05 N/A N/A 30.04 75(F), 24(C) 64(F), 18(C) 69% 10 SCT050 SCT065 N/A N/A 2100 N/A 77 F 4006
18/07/18 00:14 010 05 N/A N/A 30.04 75(F), 24(C) 64(F), 18(C) 69% 10 SCT050 SCT065 N/A N/A 2100 N/A 77 F 4005
18/07/18 00:13 010 05 N/A N/A 30.04 75(F), 24(C) 64(F), 18(C) 69% 10 SCT050 SCT065 N/A N/A 2100 N/A 77 F 4004
18/07/18 00:12 010 05 N/A N/A 30.04 75(F), 24(C) 64(F), 18(C) 69% 10 SCT050 SCT065 N/A N/A 2100 N/A 77 F 4003
18/07/18 00:11 010 05 N/A N/A 30.04 75(F), 24(C) 64(F), 18(C) 69% 10 SCT050 SCT065 N/A N/A 2100 N/A 77 F 4002
18/07/18 00:10 010 06 N/A N/A 30.04 75(F), 24(C) 65(F), 18(C) 69% 10 SCT050 SCT065 N/A N/A 2100 N/A 77 F 4001
18/07/18 00:09 360 06 N/A N/A 30.04 75(F), 24(C) 65(F), 18(C) 69% 10 SCT050 SCT065 N/A N/A 2100 N/A 77 F 4000
18/07/18 00:08 360 05 N/A N/A 30.04 75(F), 24(C) 65(F), 18(C) 69% 10 SCT050 SCT065 N/A N/A 2100 N/A 77 F 3999
18/07/18 00:07 010 05 N/A N/A 30.04 75(F), 24(C) 65(F), 18(C) 69% 10 SCT050 SCT065 N/A N/A 2100 N/A 77 F 3998
18/07/18 00:06 360 05 N/A N/A 30.04 75(F), 24(C) 65(F), 18(C) 69% 10 SCT050 SCT065 N/A N/A 2100 N/A 77 F 3997
18/07/18 00:05 360 05 N/A N/A 30.04 75(F), 24(C) 65(F), 18(C) 69% 10 SCT050 SCT065 N/A N/A 2100 N/A 77 F 3996
18/07/18 00:04 360 04 N/A N/A 30.04 75(F), 24(C) 65(F), 18(C) 69% 10 SCT050 SCT065 N/A N/A 2100 N/A 77 F 3995
18/07/18 00:03 360 04 N/A N/A 30.04 75(F), 24(C) 66(F), 19(C) 74% 10 SCT050 SCT065 N/A N/A 2100 N/A 76 F 3994
18/07/18 00:02 360 04 N/A N/A 30.04 74(F), 23(C) 66(F), 19(C) 78% 10 SCT050 SCT065 N/A N/A 2000 N/A 75 F 3993
18/07/18 00:01 010 04 N/A N/A 30.04 74(F), 23(C) 66(F), 19(C) 78% 10 SCT050 SCT065 N/A N/A 2000 N/A 75 F 3992
18/07/18 00:00 010 04 N/A N/A 30.04 74(F), 23(C) 66(F), 19(C) 78% 10 SCT050 SCT065 N/A N/A 2000 N/A 75 F 3991
18/07/17 23:59 010 04 N/A N/A 30.04 74(F), 23(C) 66(F), 19(C) 78% 10 SCT050 SCT065 N/A N/A 2000 N/A 75 F 3990
18/07/17 23:58 010 04 N/A N/A 30.04 74(F), 23(C) 66(F), 19(C) 78% 10 SCT050 SCT065 N/A N/A 2000 N/A 75 F 3989
18/07/17 23:57 010 04 N/A N/A 30.04 74(F), 23(C) 66(F), 19(C) 78% 10 SCT050 SCT065 N/A N/A 2000 N/A 75 F 3988
18/07/17 23:56 360 04 N/A N/A 30.04 74(F), 23(C) 65(F), 18(C) 73% 10 SCT050 SCT065 N/A N/A 2000 N/A 75 F 3987
18/07/17 23:55 360 04 N/A N/A 30.04 74(F), 23(C) 65(F), 18(C) 73% 10 SCT050 SCT065 N/A N/A 2000 N/A 75 F 3986
18/07/17 23:54 360 04 N/A N/A 30.04 74(F), 23(C) 65(F), 18(C) 73% 10 SCT050 SCT065 N/A N/A 2000 N/A 75 F 3985
18/07/17 23:53 360 04 N/A N/A 30.04 74(F), 23(C) 65(F), 18(C) 73% 10 SCT065 N/A N/A 2000 N/A 75 F 3984
18/07/17 23:52 360 04 N/A N/A 30.04 74(F), 23(C) 64(F), 18(C) 73% 10 SCT065 N/A N/A 2000 N/A 75 F 3983
18/07/17 23:51 360 04 N/A N/A 30.04 74(F), 23(C) 64(F), 18(C) 73% 10 SCT065 N/A N/A 2000 N/A 75 F 3982
18/07/17 23:50 350 04 N/A N/A 30.03 75(F), 24(C) 64(F), 18(C) 69% 10 CLR N/A N/A 2100 N/A 77 F 3981
18/07/17 23:49 350 04 N/A N/A 30.03 75(F), 24(C) 64(F), 18(C) 69% 10 CLR N/A N/A 2100 N/A 77 F 3980
18/07/17 23:48 350 04 N/A N/A 30.03 75(F), 24(C) 64(F), 18(C) 69% 10 CLR N/A N/A 2100 N/A 77 F 3979
18/07/17 23:47 360 04 N/A N/A 30.03 75(F), 24(C) 64(F), 18(C) 69% 10 CLR N/A N/A 2100 N/A 77 F 3978
18/07/17 23:46 360 04 N/A N/A 30.03 75(F), 24(C) 64(F), 18(C) 69% 10 CLR N/A N/A 2100 N/A 77 F 3977
18/07/17 23:45 360 04 N/A N/A 30.03 76(F), 24(C) 64(F), 18(C) 69% 10 CLR N/A N/A 2100 N/A 78 F 3976
18/07/17 23:44 360 04 N/A N/A 30.03 76(F), 24(C) 64(F), 18(C) 69% 10 CLR N/A N/A 2100 N/A 78 F 3975
18/07/17 23:43 360 04 N/A N/A 30.03 76(F), 24(C) 64(F), 18(C) 69% 10 CLR N/A N/A 2100 N/A 78 F 3974
18/07/17 23:42 360 04 N/A N/A 30.03 76(F), 24(C) 64(F), 18(C) 69% 10 CLR N/A N/A 2100 N/A 78 F 3973
18/07/17 23:41 360 04 N/A N/A 30.03 77(F), 25(C) 64(F), 18(C) 65% 10 CLR N/A N/A 2200 N/A 79 F 3972
18/07/17 23:40 360 04 N/A N/A 30.03 77(F), 25(C) 64(F), 18(C) 65% 10 CLR N/A N/A 2200 N/A 79 F 3971
18/07/17 23:39 360 04 N/A N/A 30.03 77(F), 25(C) 64(F), 18(C) 65% 10 CLR N/A N/A 2200 N/A 79 F 3970
18/07/17 23:38 360 04 N/A N/A 30.03 77(F), 25(C) 64(F), 18(C) 65% 10 CLR N/A N/A 2200 N/A 79 F 3969
18/07/17 23:37 360 04 N/A N/A 30.04 77(F), 25(C) 65(F), 18(C) 65% 10 CLR N/A N/A 2200 N/A 79 F 3968
18/07/17 23:36 360 04 N/A N/A 30.03 76(F), 24(C) 65(F), 18(C) 69% 10 CLR N/A N/A 2100 N/A 78 F 3967
18/07/17 23:35 360 04 N/A N/A 30.03 76(F), 24(C) 64(F), 18(C) 69% 10 CLR N/A N/A 2100 N/A 78 F 3966
18/07/17 23:34 360 03 N/A N/A 30.03 76(F), 24(C) 64(F), 18(C) 69% 10 CLR N/A N/A 2100 N/A 78 F 3965
18/07/17 23:33 360 03 N/A N/A 30.03 75(F), 24(C) 64(F), 18(C) 69% 10 CLR N/A N/A 2100 N/A 77 F 3964
18/07/17 23:32 350 03 N/A N/A 30.03 75(F), 24(C) 64(F), 18(C) 69% 10 CLR N/A N/A 2100 N/A 77 F 3963
18/07/17 23:31 350 04 N/A N/A 30.03 75(F), 24(C) 64(F), 18(C) 69% 10 CLR N/A N/A 2100 N/A 77 F 3962
18/07/17 23:30 350 04 N/A N/A 30.03 75(F), 24(C) 64(F), 18(C) 69% 10 CLR N/A N/A 2100 N/A 77 F 3961
18/07/17 23:29 360 04 N/A N/A 30.03 75(F), 24(C) 64(F), 18(C) 69% 10 CLR N/A N/A 2100 N/A 77 F 3960
18/07/17 23:28 360 04 N/A N/A 30.03 76(F), 24(C) 63(F), 17(C) 65% 10 CLR N/A N/A 2100 N/A 78 F 3959
18/07/17 23:27 360 04 N/A N/A 30.03 76(F), 24(C) 63(F), 17(C) 65% 10 SCT060 SCT070 N/A N/A 2100 N/A 78 F 3958
18/07/17 23:26 360 05 N/A N/A 30.03 76(F), 24(C) 63(F), 17(C) 65% 10 SCT060 SCT070 N/A N/A 2100 N/A 78 F 3957
18/07/17 23:25 360 05 N/A N/A 30.04 76(F), 24(C) 63(F), 17(C) 65% 10 SCT060 SCT070 N/A N/A 2100 N/A 78 F 3956
18/07/17 23:24 360 05 N/A N/A 30.04 76(F), 24(C) 62(F), 17(C) 65% 10 SCT060 SCT070 N/A N/A 2100 N/A 78 F 3955
18/07/17 23:23 010 05 N/A N/A 30.04 76(F), 24(C) 62(F), 17(C) 65% 10 SCT060 SCT070 N/A N/A 2100 N/A 78 F 3954
18/07/17 23:22 010 05 N/A N/A 30.04 76(F), 24(C) 62(F), 17(C) 65% 10 SCT060 SCT070 N/A N/A 2100 N/A 78 F 3953
18/07/17 23:21 010 05 N/A N/A 30.03 76(F), 24(C) 62(F), 17(C) 65% 10 SCT060 SCT070 N/A N/A 2100 N/A 78 F 3952
18/07/17 23:20 010 06 N/A N/A 30.03 76(F), 24(C) 62(F), 17(C) 65% 10 SCT060 SCT070 N/A N/A 2100 N/A 78 F 3951
18/07/17 23:19 010 07 N/A N/A 30.04 76(F), 24(C) 62(F), 17(C) 65% 10 SCT060 SCT070 N/A N/A 2100 N/A 78 F 3950
18/07/17 23:18 010 07 N/A N/A 30.03 76(F), 24(C) 62(F), 17(C) 65% 10 SCT060 SCT070 N/A N/A 2100 N/A 78 F 3949
18/07/17 23:17 010 07 N/A N/A 30.03 77(F), 25(C) 62(F), 17(C) 61% 10 SCT060 SCT070 N/A N/A 2200 N/A 79 F 3948
18/07/17 23:16 010 06 N/A N/A 30.03 77(F), 25(C) 62(F), 17(C) 61% 10 SCT060 SCT070 N/A N/A 2200 N/A 79 F 3947
18/07/17 23:15 360 05 N/A N/A 30.03 77(F), 25(C) 62(F), 17(C) 61% 10 SCT060 SCT070 N/A N/A 2200 N/A 79 F 3946
18/07/17 23:14 350 05 N/A N/A 30.03 77(F), 25(C) 62(F), 17(C) 61% 10 SCT060 SCT070 N/A N/A 2200 N/A 79 F 3945
18/07/17 23:13 350 06 N/A N/A 30.03 78(F), 26(C) 62(F), 17(C) 58% 10 SCT060 SCT070 N/A N/A 2300 N/A 80 F 3944
18/07/17 23:12 360 07 N/A N/A 30.03 78(F), 26(C) 62(F), 17(C) 58% 10 SCT060 SCT070 N/A N/A 2300 N/A 80 F 3943
18/07/17 23:11 360 06 N/A N/A 30.03 78(F), 26(C) 62(F), 17(C) 58% 10 SCT060 SCT070 N/A N/A 2300 N/A 80 F 3942
18/07/17 23:10 360 05 N/A N/A 30.03 78(F), 26(C) 62(F), 17(C) 58% 10 SCT060 SCT070 N/A N/A 2300 N/A 80 F 3941
18/07/17 23:09 010 06 N/A N/A 30.03 79(F), 26(C) 62(F), 17(C) 58% 10 SCT060 SCT070 N/A N/A 2300 N/A 81 F 3940
18/07/17 23:08 020 06 N/A N/A 30.03 78(F), 26(C) 62(F), 17(C) 58% 10 SCT060 SCT070 N/A N/A 2300 N/A 80 F 3939
18/07/17 23:07 020 05 N/A N/A 30.03 78(F), 26(C) 62(F), 17(C) 58% 10 SCT060 SCT070 N/A N/A 2300 N/A 80 F 3938
18/07/17 23:06 010 05 N/A N/A 30.03 78(F), 26(C) 62(F), 17(C) 58% 10 SCT060 SCT070 N/A N/A 2300 N/A 80 F 3937
18/07/17 23:05 010 05 N/A N/A 30.03 78(F), 26(C) 62(F), 17(C) 58% 10 SCT060 SCT070 N/A N/A 2300 N/A 80 F 3936
18/07/17 23:04 010 05 N/A N/A 30.03 78(F), 26(C) 62(F), 17(C) 58% 10 SCT060 SCT070 N/A N/A 2300 N/A 80 F 3935
18/07/17 23:03 010 06 N/A N/A 30.03 77(F), 25(C) 62(F), 17(C) 61% 10 SCT060 SCT070 N/A N/A 2200 N/A 79 F 3934
18/07/17 23:02 360 06 N/A N/A 30.03 77(F), 25(C) 62(F), 17(C) 61% 10 SCT060 BKN070 N/A N/A 2200 N/A 79 F 3933
18/07/17 23:01 360 05 N/A N/A 30.03 77(F), 25(C) 62(F), 17(C) 61% 10 SCT060 BKN070 N/A N/A 2200 N/A 79 F 3932
18/07/17 23:00 360 05 N/A N/A 30.03 78(F), 26(C) 62(F), 17(C) 58% 10 SCT060 SCT070 N/A N/A 2300 N/A 80 F 3931
18/07/17 22:59 360 06 N/A N/A 30.03 78(F), 26(C) 63(F), 17(C) 58% 10 SCT060 SCT070 N/A N/A 2300 N/A 80 F 3930
18/07/17 22:58 360 07 N/A N/A 30.04 78(F), 26(C) 63(F), 17(C) 58% 10 SCT060 SCT070 N/A N/A 2300 N/A 80 F 3929
18/07/17 22:57 360 06 N/A N/A 30.04 79(F), 26(C) 62(F), 17(C) 58% 10 SCT060 SCT070 N/A N/A 2300 N/A 81 F 3928
18/07/17 22:56 360 05 N/A N/A 30.04 79(F), 26(C) 62(F), 17(C) 58% 10 SCT060 SCT070 N/A N/A 2300 N/A 81 F 3927
18/07/17 22:55 360 06 N/A N/A 30.04 79(F), 26(C) 62(F), 17(C) 58% 10 SCT060 SCT070 N/A N/A 2300 N/A 81 F 3926
18/07/17 22:54 360 06 N/A N/A 30.04 79(F), 26(C) 62(F), 17(C) 58% 10 SCT060 SCT070 N/A N/A 2300 N/A 81 F 3925
18/07/17 22:53 010 06 N/A N/A 30.04 79(F), 26(C) 62(F), 17(C) 58% 10 SCT070 N/A N/A 2300 N/A 81 F 3924
18/07/17 22:52 010 06 N/A N/A 30.04 79(F), 26(C) 62(F), 17(C) 58% 10 SCT070 N/A N/A 2300 N/A 81 F 3923
18/07/17 22:51 010 07 N/A N/A 30.04 79(F), 26(C) 62(F), 17(C) 58% 10 CLR N/A N/A 2300 N/A 81 F 3922
18/07/17 22:50 010 08 N/A N/A 30.04 79(F), 26(C) 62(F), 17(C) 58% 10 CLR N/A N/A 2300 N/A 81 F 3921
18/07/17 22:49 010 08 N/A N/A 30.04 79(F), 26(C) 62(F), 17(C) 58% 10 CLR N/A N/A 2300 N/A 81 F 3920
18/07/17 22:48 010 08 N/A N/A 30.04 79(F), 26(C) 62(F), 17(C) 58% 10 CLR N/A N/A 2300 N/A 81 F 3919
18/07/17 22:47 010 08 N/A N/A 30.04 79(F), 26(C) 62(F), 17(C) 58% 10 CLR N/A N/A 2300 N/A 81 F 3918
18/07/17 22:46 010 07 N/A N/A 30.04 78(F), 26(C) 62(F), 17(C) 58% 10 CLR N/A N/A 2300 N/A 80 F 3917
18/07/17 22:45 010 06 N/A N/A 30.04 78(F), 26(C) 62(F), 17(C) 58% 10 CLR N/A N/A 2300 N/A 80 F 3916
18/07/17 22:44 010 07 N/A N/A 30.03 79(F), 26(C) 62(F), 17(C) 58% 10 CLR N/A N/A 2300 N/A 81 F 3915
18/07/17 22:43 360 07 N/A N/A 30.03 79(F), 26(C) 62(F), 17(C) 58% 10 CLR N/A N/A 2300 N/A 81 F 3914
18/07/17 22:42 360 06 N/A N/A 30.03 79(F), 26(C) 63(F), 17(C) 58% 10 CLR N/A N/A 2300 N/A 81 F 3913
18/07/17 22:41 010 07 N/A N/A 30.03 79(F), 26(C) 62(F), 17(C) 58% 10 CLR N/A N/A 2300 N/A 81 F 3912
18/07/17 22:40 010 07 N/A N/A 30.03 79(F), 26(C) 62(F), 17(C) 58% 10 CLR N/A N/A 2300 N/A 81 F 3911
18/07/17 22:39 010 06 N/A N/A 30.03 79(F), 26(C) 62(F), 17(C) 58% 10 CLR N/A N/A 2300 N/A 81 F 3910
18/07/17 22:38 010 06 N/A N/A 30.03 79(F), 26(C) 62(F), 17(C) 58% 10 CLR N/A N/A 2300 N/A 81 F 3909
18/07/17 22:37 020 06 N/A N/A 30.03 80(F), 27(C) 62(F), 17(C) 54% 10 CLR N/A N/A 2400 N/A 81 F 3908
18/07/17 22:36 010 07 N/A N/A 30.03 80(F), 27(C) 62(F), 17(C) 54% 10 CLR N/A N/A 2400 N/A 81 F 3907
18/07/17 22:35 010 07 N/A N/A 30.04 80(F), 27(C) 62(F), 17(C) 54% 10 CLR N/A N/A 2400 N/A 81 F 3906
18/07/17 22:34 360 07 N/A N/A 30.04 80(F), 27(C) 62(F), 17(C) 54% 10 CLR N/A N/A 2400 N/A 81 F 3905
18/07/17 22:33 360 08 N/A N/A 30.04 80(F), 27(C) 62(F), 17(C) 54% 10 CLR N/A N/A 2400 N/A 81 F 3904